Apalachicola Bay - St. George Island Weather Center

Moon Phase Calendar



Online Cameras

 


      

Current Conditions in Apalachicola
3/4/2021 4:46:32 PM

72°F
Feels Like 62
Clear
Humidity
35%
Pressure
30"
Wind
13.8 mph (WNW)
Dew Point
43°F
UV Index
1/10 (Low)
Visibility
6 mi

Hourly Forecast

Date & Time Thu, Mar 4
4:00 PM
Thu, Mar 4
5:00 PM
Thu, Mar 4
6:00 PM
Thu, Mar 4
7:00 PM
Thu, Mar 4
8:00 PM
Thu, Mar 4
9:00 PM
Thu, Mar 4
10:00 PM
Thu, Mar 4
11:00 PM
Fri, Mar 5
12:00 AM
Fri, Mar 5
1:00 AM
Fri, Mar 5
2:00 AM
Fri, Mar 5
3:00 AM
Fri, Mar 5
4:00 AM
Fri, Mar 5
5:00 AM
Fri, Mar 5
6:00 AM
Fri, Mar 5
7:00 AM
Fri, Mar 5
8:00 AM
Fri, Mar 5
9:00 AM
Fri, Mar 5
10:00 AM
Fri, Mar 5
11:00 AM
Fri, Mar 5
12:00 PM
Fri, Mar 5
1:00 PM
Fri, Mar 5
2:00 PM
Fri, Mar 5
3:00 PM
Fri, Mar 5
4:00 PM
Fri, Mar 5
5:00 PM
Fri, Mar 5
6:00 PM
Fri, Mar 5
7:00 PM
Fri, Mar 5
8:00 PM
Fri, Mar 5
9:00 PM
Fri, Mar 5
10:00 PM
Fri, Mar 5
11:00 PM
Sat, Mar 6
12:00 AM
Sat, Mar 6
1:00 AM
Sat, Mar 6
2:00 AM
Sat, Mar 6
3:00 AM
Sat, Mar 6
4:00 AM
Sat, Mar 6
5:00 AM
Sat, Mar 6
6:00 AM
Sat, Mar 6
7:00 AM
Sat, Mar 6
8:00 AM
Sat, Mar 6
9:00 AM
Sat, Mar 6
10:00 AM
Sat, Mar 6
11:00 AM
Sat, Mar 6
12:00 PM
Sat, Mar 6
1:00 PM
Sat, Mar 6
2:00 PM
Sat, Mar 6
3:00 PM
Condition
Clear

Clear

Clear

Clear

Clear

Clear

Clear

Clear

Clear

Clear

Clear

Clear

Clear

Clear

Clear

Clear

Clouds

Clouds

Clouds

Clouds

Clouds

Clouds

Clouds

Clouds

Clouds

Clouds

Clouds

Clouds

Clouds

Clouds

Clouds

Clouds

Clouds

Clouds

Clouds

Clouds

Clouds

Clouds

Clouds

Rain

Rain

Rain

Rain

Rain

Rain

Rain

Rain

Rain
Temperature 72°F70°F68°F63°F61°F60°F59°F58°F57°F57°F56°F55°F55°F54°F54°F53°F55°F58°F61°F64°F64°F65°F65°F65°F64°F64°F63°F60°F60°F61°F60°F59°F58°F59°F59°F58°F58°F58°F57°F55°F53°F52°F52°F52°F55°F57°F58°F56°F
Feels Like 66°F64°F62°F57°F55°F54°F53°F53°F52°F52°F51°F50°F49°F49°F48°F47°F48°F51°F55°F57°F57°F57°F58°F58°F58°F59°F59°F58°F57°F58°F59°F55°F53°F53°F53°F52°F49°F49°F47°F46°F46°F43°F45°F44°F46°F48°F49°F50°F
Cloudiness 1%1%0%0%0%0%0%0%0%0%0%0%3%2%4%3%11%40%58%60%69%64%88%90%83%87%90%91%27%64%76%82%85%88%98%67%76%77%81%85%100%100%100%100%100%100%100%100%
Visibility 6 mi6 mi6 mi6 mi6 mi6 mi6 mi6 mi6 mi6 mi6 mi6 mi6 mi6 mi6 mi6 mi6 mi6 mi6 mi6 mi6 mi6 mi6 mi6 mi6 mi6 mi6 mi6 mi6 mi6 mi6 mi6 mi6 mi6 mi6 mi6 mi6 mi6 mi6 mi6 mi4 mi6 mi4 mi6 mi6 mi6 mi6 mi6 mi
Precipitation 0%0%0%0%0%0%0%0%0%0%0%0%0%0%0%0%0%0%0%0%0%0%0%0%0%0%0%0%0%0%0%0%0%0%0%0%0%0%0%30%100%100%100%100%100%100%84%100%
Humidity 35%37%44%52%56%57%58%59%60%60%62%63%65%67%69%70%66%59%54%51%52%52%51%50%52%52%57%63%66%63%65%61%62%60%66%78%78%76%78%82%86%89%90%92%88%83%82%84%
Dew Point 43°F43°F45°F45°F45°F45°F44°F44°F44°F44°F43°F43°F43°F44°F44°F44°F44°F44°F45°F46°F47°F47°F47°F46°F47°F46°F48°F48°F48°F48°F49°F46°F45°F45°F48°F52°F52°F51°F50°F50°F49°F49°F49°F50°F52°F53°F52°F52°F
Pressure 30"30"30.03"30.06"30.06"30.06"30.09"30.09"30.09"30.06"30.06"30.06"30.03"30.06"30.06"30.06"30.06"30.09"30.09"30.09"30.09"30.06"30.03"30"30"30"30.03"30.06"30.06"30.06"30.06"30.06"30.06"30.06"30.03"30.03"30"30.03"30.03"30.06"30.09"30.09"30.12"30.12"30.12"30.09"30.09"30.06"
Wind Speed 7.7 mph8.9 mph8 mph7.8 mph7.5 mph7.5 mph7.4 mph7.2 mph6.2 mph6.4 mph6.7 mph7.3 mph7.1 mph7.4 mph7.6 mph8.3 mph9.3 mph9.4 mph9.3 mph10.9 mph11.9 mph11.7 mph10.8 mph9.9 mph9.3 mph6.5 mph5.3 mph3.6 mph3.6 mph3.6 mph1 mph6.6 mph7.4 mph7.5 mph11.1 mph11.7 mph16.8 mph16.3 mph18.2 mph14.8 mph12.4 mph14.7 mph12.4 mph14.2 mph17.2 mph18.5 mph16.3 mph11.7 mph
Wind
Direction
306°
NW
314°
NW
324°
NW
320°
NW
331°
NNW
343°
NNW

N

N

N

N
15°
NNE
11°
N
11°
N
17°
NNE
22°
NNE
36°
NE
46°
NE
57°
ENE
71°
ENE
88°
E
102°
ESE
109°
ESE
115°
ESE
129°
SE
129°
SE
137°
SE
183°
S
182°
S
190°
S
111°
ESE

N
18°
NNE

N
50°
NE
72°
ENE
90°
E
88°
E
87°
E
75°
ENE
54°
NE
45°
NE
54°
NE
56°
NE
60°
ENE
74°
ENE
70°
ENE
68°
ENE
60°
ENE

Daily Forecast

Date High Low Precip. Humidity
Today
Mar 4

Clear
72 °F
52 °F
0%
40%
Friday
Mar 5

Clouds
65 °F
54 °F
0%
51%
Saturday
Mar 6

Rain
60 °F
54 °F
100%
86%
Sunday
Mar 7

Clear
65 °F
49 °F
0%
41%
Monday
Mar 8

Clear
62 °F
52 °F
0%
38%
Tuesday
Mar 9

Clear
65 °F
55 °F
0%
61%
Wednesday
Mar 10

Clouds
68 °F
61 °F
0%
64%
Thursday
Mar 11

Clear
69 °F
62 °F
0%
69%
Friday
Mar 12

Clear
71 °F
61 °F
0%
66%
Saturday
Mar 13

Clouds
72 °F
63 °F
0%
70%
Sunday
Mar 14

Clouds
75 °F
65 °F
11%
73%
Monday
Mar 15

Clear
67 °F
52 °F
0%
41%
Tuesday
Mar 16

Clouds
68 °F
56 °F
0%
65%
Wednesday
Mar 17

Rain
69 °F
66 °F
100%
96%
Thursday
Mar 18

Rain
76 °F
62 °F
100%
46%
Friday
Mar 19

Clouds
70 °F
59 °F
0%
54%


Temperature 8-14 Day Outlook



Precipitation 8-14 Day Outlook




Quick Links
Apalachicola Bay - St. George Island News
Apalachicola Bay - St. George Island Photos
Apalachicola Bay - St. George Island Videos




About Us
Contact Us
Site Map
Search Site
Advertise With Us
   
Apalachicola.USGulf.info
THE APALACHICOLA BAY - ST. GEORGE ISLAND WEBSITE

Copyright 2021, Coastal Town
Privacy    |    Legal